DW0835 Weather Reports


time (UTC)temp
C
wind
direction
speed
KPH
gust
KPH
rain 1hr
cm
rain 24hr
cm
rain mn
cm
humidity
%
barometer
mb
20200407040518 6 0.0 0.0 0.03 0.03 0.03 85 1012.9
20200407035529 6 0.0 0.0 0.00 0.00 0.00 85 1012.9
20200407034530 6 0.0 0.0 0.00 0.00 0.00 84 1012.9
20200407033529 6 0.0 1.6 0.00 0.00 0.00 83 1013.3
20200407032529 6 0.0 1.6 0.00 0.00 0.00 82 1013.3
20200407031517 6 0.0 1.6 0.00 0.00 0.00 81 1013.3
20200407030529 6 0.0 0.0 0.00 0.00 0.00 80 1013.3
20200407025529 7 0.0 0.0 0.00 0.00 0.00 77 1013.4
20200407024518 7 0.0 0.0 0.00 0.00 0.00 74 1013.4
20200407023530 8 0.0 1.6 0.00 0.00 0.00 69 1013.5
20200407022517 8 0.0 0.0 0.00 0.00 0.00 61 1013.5
20200407021517 9 0.0 0.0 0.00 0.00 0.00 60 1013.5
20200407020530 9 0.0 0.0 0.00 0.00 0.00 59 1013.2
20200407015529 9 0.0 1.6 0.00 0.00 0.00 58 1013.1
20200407014529 9 0.0 0.0 0.00 0.00 0.00 58 1013.1
20200407013517 9 0.0 0.0 0.00 0.00 0.00 58 1013.1
20200407012529 9 0.0 0.0 0.00 0.00 0.00 58 1013.0
20200407011518 9 0.0 0.0 0.00 0.00 0.00 58 1012.9
20200407010517 10 0.0 0.0 0.00 0.00 0.00 58 1012.9
20200407005529 10 0.0 3.2 0.00 0.00 0.00 56 1012.9
20200407004529 10 0.0 1.6 0.00 0.00 0.00 55 1012.9
20200407003527 10 0.0 0.0 0.00 0.00 0.00 53 1012.8
20200407002529 10 0.0 0.0 0.00 0.00 0.00 52 1012.8
20200407001518 10 0.0 0.0 0.00 0.00 0.00 52 1012.8
20200407000518 10 0.0 0.0 0.00 0.00 0.00 52 1012.8
20200406235518 10 0.0 0.0 0.00 0.00 0.00 54 1012.8
20200406234529 10 0.0 0.0 0.00 0.00 0.00 53 1012.8
20200406233529 10 0.0 1.6 0.00 0.00 0.00 55 1012.8
20200406232527 10 0.0 1.6 0.00 0.00 0.00 58 1012.9
20200406231517 10 0.0 0.0 0.00 0.00 0.00 59 1012.9
20200406230521 11 0.0 1.6 0.00 0.00 0.00 60 1013.1
20200406225529 11 0.0 0.0 0.00 0.00 0.00 60 1013.0
20200406224531 11 0.0 0.0 0.00 0.00 0.00 60 1013.0
20200406223529 11 0.0 0.0 0.00 0.00 0.00 60 1013.4
20200406222531 11 0.0 0.0 0.00 0.00 0.00 60 1013.4
20200406221529 11 0.0 3.2 0.00 0.00 0.00 61 1013.4
20200406220518 11 0.0 0.0 0.00 0.00 0.00 61 1013.6
20200406215530 11 0.0 0.0 0.00 0.00 0.00 61 1013.5
20200406214530 11 0.0 0.0 0.00 0.00 0.00 62 1013.5
20200406213529 11 0.0 4.8 0.00 0.00 0.00 62 1013.6
20200406212531 11 0.0 3.2 0.00 0.00 0.00 61 1013.9
20200406211530 11 0.0 3.2 0.00 0.00 0.00 61 1013.9
20200406210530 12 0.0 4.8 0.00 0.00 0.00 62 1014.0
20200406205517 11 0.0 1.6 0.00 0.00 0.00 63 1014.1
20200406204519 12 0.0 1.6 0.00 0.00 0.00 63 1014.1
20200406203530 12 0.0 4.8 0.00 0.00 0.00 62 1014.5
20200406202530 11 0.0 3.2 0.00 0.00 0.00 64 1014.7
20200406201531 11 0.0 9.7 0.00 0.00 0.00 65 1014.6
20200406200519 11 0.0 3.2 0.00 0.00 0.00 66 1014.9
20200406195530 11 0.0 3.2 0.00 0.00 0.00 66 1015.1
20200406194531 11 0.0 4.8 0.00 0.00 0.00 66 1015.1
20200406193519 11 0.0 3.2 0.00 0.00 0.00 66 1015.3
20200406192530 11 0.0 1.6 0.00 0.00 0.00 65 1015.6
20200406191530 12 0.0 1.6 0.00 0.00 0.00 65 1015.6
20200406190518 12 0.0 9.7 0.00 0.00 0.00 62 1015.7
20200406185519 12 0.0 9.7 0.00 0.00 0.00 64 1015.9
20200406184519 12 0.0 3.2 0.00 0.00 0.00 63 1015.9
20200406183530 12 0.0 3.2 0.00 0.00 0.00 64 1015.7
20200406182517 12 0.0 8.0 0.00 0.00 0.00 66 1016.2
20200406181530 11 90 1.6 8.0 0.00 0.00 0.00 69 1016.2
20200406180530 10 0.0 1.6 0.00 0.00 0.00 73 1016.6
20200406175530 9 0.0 4.8 0.00 0.00 0.00 74 1016.6
20200406174530 8 90 1.6 8.0 0.00 0.00 0.00 76 1016.5
20200406173518 8 90 1.6 9.7 0.00 0.00 0.00 75 1016.8
20200406172530 8 0.0 4.8 0.00 0.00 0.00 76 1017.2
20200406171519 7 0.0 4.8 0.00 0.00 0.00 78 1017.2
20200406170530 7 90 1.6 6.4 0.00 0.00 0.00 77 1017.2
20200406165519 7 90 1.6 11.3 0.00 0.00 0.00 77 1017.6
20200406164530 7 90 1.6 4.8 0.00 0.00 0.00 77 1017.6
20200406163530 7 0.0 8.0 0.00 0.00 0.00 78 1017.6
20200406162519 7 0.0 3.2 0.00 0.00 0.00 78 1017.8
20200406161528 7 0.0 8.0 0.00 0.00 0.00 79 1017.8
20200406160530 7 90 1.6 8.0 0.00 0.00 0.00 79 1018.1
20200406155530 7 0.0 1.6 0.00 0.00 0.00 81 1018.3
20200406154519 6 0.0 8.0 0.00 0.00 0.00 82 1018.2
20200406153518 5 0.0 0.0 0.00 0.00 0.00 83 1018.6
20200406152529 5 0.0 1.6 0.00 0.00 0.00 84 1018.7
20200406151519 5 0.0 1.6 0.00 0.00 0.00 83 1018.7
20200406150530 5 90 1.6 4.8 0.00 0.00 0.00 83 1018.7
20200406145518 5 90 1.6 4.8 0.00 0.00 0.00 82 1018.6
20200406144518 5 0.0 4.8 0.00 0.00 0.00 82 1018.6
20200406143530 5 0.0 1.6 0.00 0.00 0.00 82 1018.7
20200406142518 5 0.0 3.2 0.00 0.00 0.00 80 1018.8
20200406141530 6 0.0 4.8 0.00 0.00 0.00 78 1018.8
20200406140529 6 0.0 1.6 0.00 0.00 0.00 80 1019.4
20200406135529 6 0.0 0.0 0.00 0.00 0.00 83 1019.3
20200406134518 5 0.0 0.0 0.00 0.00 0.00 85 1019.3
20200406133518 5 0.0 0.0 0.00 0.00 0.00 88 1019.3
20200406132530 4 0.0 0.0 0.00 0.00 0.00 90 1019.2
20200406131518 3 0.0 0.0 0.00 0.00 0.00 93 1019.2
20200406130529 2 0.0 0.0 0.00 0.00 0.00 93 1019.2
20200406125530 2 0.0 0.0 0.00 0.00 0.00 93 1019.4
20200406124529 1 0.0 0.0 0.00 0.00 0.00 94 1019.4
20200406123518 0 0.0 0.0 0.00 0.00 0.00 94 1019.2
20200406122518 0 0.0 0.0 0.00 0.00 0.00 93 1019.3
20200406121518 0 0.0 0.0 0.00 0.00 0.00 93 1019.3
20200406120518 0 0.0 0.0 0.00 0.00 0.00 92 1019.3
20200406115528 -1 0.0 0.0 0.00 0.00 0.00 92 1019.3
20200406114518 -1 0.0 0.0 0.00 0.00 0.00 92 1019.3
20200406113518 -1 0.0 0.0 0.00 0.00 0.00 92 1019.0
20200406112518 -1 0.0 0.0 0.00 0.00 0.00 92 1019.1
20200406111518 -1 0.0 0.0 0.00 0.00 0.00 92 1019.1
20200406110518 0 0.0 0.0 0.00 0.00 0.00 92 1019.1
20200406105529 0 0.0 0.0 0.00 0.00 0.00 92 1019.1
20200406104529 0 0.0 0.0 0.00 0.00 0.00 92 1019.1
20200406103529 0 0.0 0.0 0.00 0.00 0.00 92 1019.1
20200406102529 0 0.0 0.0 0.00 0.00 0.00 92 1019.1
20200406101529 0 0.0 0.0 0.00 0.00 0.00 92 1019.1
20200406100529 0 0.0 0.0 0.00 0.00 0.00 92 1019.1
20200406095529 0 0.0 0.0 0.00 0.00 0.00 92 1019.1
20200406094517 0 0.0 0.0 0.00 0.00 0.00 92 1019.1
20200406093529 0 0.0 0.0 0.00 0.00 0.00 92 1019.1
20200406092529 0 0.0 0.0 0.00 0.00 0.00 92 1019.2
20200406090517 0 0.0 0.0 0.00 0.00 0.00 92 1019.1
20200406085518 0 0.0 0.0 0.00 0.00 0.00 92 1019.0
20200406084529 0 0.0 0.0 0.00 0.00 0.00 92 1019.0
20200406083529 0 0.0 0.0 0.00 0.00 0.00 92 1019.0
20200406082529 0 0.0 0.0 0.00 0.00 0.00 91 1019.1
20200406081529 0 0.0 0.0 0.00 0.00 0.00 92 1019.1
20200406080517 0 0.0 0.0 0.00 0.00 0.00 91 1019.2
20200406075517 0 0.0 0.0 0.00 0.00 0.00 92 1019.3
20200406074518 0 0.0 0.0 0.00 0.00 0.00 91 1019.4
20200406073529 0 0.0 0.0 0.00 0.00 0.00 91 1019.5
20200406072528 0 0.0 0.0 0.00 0.00 0.00 91 1019.6
20200406071517 0 0.0 0.0 0.00 0.00 0.00 91 1019.6
20200406070517 0 0.0 0.0 0.00 0.00 0.00 91 1019.6
20200406065517 0 0.0 0.0 0.00 0.00 0.00 91 1019.6
20200406064529 0 0.0 0.0 0.00 0.00 0.00 91 1019.6
20200406063531 0 0.0 0.0 0.00 0.00 0.00 91 1019.6
20200406062519 0 0.0 0.0 0.00 0.00 0.00 91 1019.9
20200406061519 0 0.0 0.0 0.00 0.00 0.00 91 1019.9
20200406060529 0 0.0 0.0 0.00 0.00 0.00 91 1020.1
20200406055517 0 0.0 0.0 0.00 0.00 0.00 90 1020.2
20200406054530 0 0.0 0.0 0.00 0.00 0.00 91 1020.2
20200406053519 0 0.0 0.0 0.00 0.00 0.00 91 1020.2
20200406052528 0 0.0 0.0 0.00 0.00 0.00 91 1020.2
20200406051517 0 0.0 0.0 0.00 0.00 0.00 91 1020.2
20200406050519 0 0.0 0.0 0.00 0.00 0.00 90 1020.4
20200406045551 0 0.0 0.0 0.00 0.00 0.00 90 1020.2
20200406044529 0 0.0 0.0 0.00 0.00 0.00 90 1020.2
20200406043529 0 0.0 0.0 0.00 0.00 0.00 90 1020.2
20200406042518 0 0.0 0.0 0.00 0.00 0.00 90 1020.5
20200406041518 0 0.0 0.0 0.00 0.00 0.00 90 1020.5